BHS375 MYEF-MYSM

Flight info

Callsign BHS375
Flight time 0h 22m
Altitude 10500
Route DCT
Aircraft AT76/M-SDFGIRY/S

Departure

Time 2026-05-04 22:29
Airport Exuma International Airport (MYEF)

Arrival

Time 2026-05-04 22:51
Airport San Salvador International Airport (MYSM)
Time Latitude Longitude Altitude Speed Heading
2026-05-04 22:23 23.56335 -75.87299 17 ft 0 kts 24°
2026-05-04 22:25 23.56337 -75.87299 17 ft 0 kts 11°
2026-05-04 22:26 23.56342 -75.87305 17 ft 3 kts 275°
2026-05-04 22:26 23.56325 -75.87354 16 ft 9 kts 245°
2026-05-04 22:26 23.56270 -75.87407 15 ft 12 kts 208°
2026-05-04 22:26 23.56187 -75.87453 14 ft 14 kts 205°
2026-05-04 22:27 23.56094 -75.87433 14 ft 16 kts 123°
2026-05-04 22:27 23.56021 -75.87282 14 ft 28 kts 117°
2026-05-04 22:27 23.55920 -75.87074 13 ft 32 kts 118°
2026-05-04 22:27 23.55829 -75.86901 12 ft 16 kts 131°
2026-05-04 22:28 23.55822 -75.86866 13 ft 4 kts 308°
2026-05-04 22:28 23.55894 -75.87020 13 ft 56 kts 297°
2026-05-04 22:28 23.56173 -75.87597 14 ft 112 kts 298°
2026-05-04 22:28 23.56575 -75.88397 448 ft 114 kts 298°
2026-05-04 22:29 23.56953 -75.89163 778 ft 129 kts 304°
2026-05-04 22:29 23.57803 -75.89728 900 ft 161 kts 350°
2026-05-04 22:29 23.58930 -75.89432 1175 ft 176 kts 34°
2026-05-04 22:29 23.59651 -75.88345 1520 ft 183 kts 64°
2026-05-04 22:30 23.60151 -75.87075 1908 ft 185 kts 67°
2026-05-04 22:30 23.60625 -75.85766 2310 ft 186 kts 68°
2026-05-04 22:30 23.61094 -75.84437 2710 ft 187 kts 68°
2026-05-04 22:30 23.61560 -75.83111 3109 ft 188 kts 68°
2026-05-04 22:31 23.62024 -75.81786 3503 ft 189 kts 68°
2026-05-04 22:31 23.62496 -75.80431 3887 ft 191 kts 68°
2026-05-04 22:31 23.62967 -75.79083 4270 ft 192 kts 68°
2026-05-04 22:31 23.63446 -75.77708 4645 ft 194 kts 68°
2026-05-04 22:32 23.63924 -75.76339 5020 ft 195 kts 68°
2026-05-04 22:32 23.64411 -75.74942 5391 ft 197 kts 67°
2026-05-04 22:32 23.64899 -75.73543 5762 ft 198 kts 67°
2026-05-04 22:32 23.65387 -75.72141 6121 ft 199 kts 67°
2026-05-04 22:33 23.65883 -75.70720 6497 ft 200 kts 67°
2026-05-04 22:33 23.66389 -75.69268 6868 ft 201 kts 67°
2026-05-04 22:33 23.66892 -75.67822 7213 ft 203 kts 67°
2026-05-04 22:33 23.67402 -75.66360 7570 ft 204 kts 67°
2026-05-04 22:34 23.67915 -75.64887 7932 ft 205 kts 67°
2026-05-04 22:34 23.68424 -75.63422 8283 ft 206 kts 67°
2026-05-04 22:34 23.68937 -75.61944 8620 ft 208 kts 67°
2026-05-04 22:34 23.69461 -75.60440 8962 ft 209 kts 67°
2026-05-04 22:35 23.69983 -75.58938 9306 ft 210 kts 67°
2026-05-04 22:35 23.70515 -75.57407 9632 ft 212 kts 67°
2026-05-04 22:35 23.71045 -75.55881 9948 ft 214 kts 68°
2026-05-04 22:35 23.71579 -75.54346 10275 ft 215 kts 68°
2026-05-04 22:36 23.72123 -75.52776 10531 ft 221 kts 68°
2026-05-04 22:36 23.72683 -75.51166 10545 ft 236 kts 68°
2026-05-04 22:36 23.73287 -75.49421 10531 ft 249 kts 68°
2026-05-04 22:36 23.73922 -75.47588 10526 ft 258 kts 68°
2026-05-04 22:37 23.74571 -75.45712 10519 ft 265 kts 68°
2026-05-04 22:37 23.75241 -75.43774 10514 ft 270 kts 68°
2026-05-04 22:37 23.75915 -75.41825 10511 ft 274 kts 68°
2026-05-04 22:37 23.76594 -75.39866 10508 ft 276 kts 68°
2026-05-04 22:38 23.77296 -75.37895 10506 ft 278 kts 66°
2026-05-04 22:38 23.78071 -75.35926 10505 ft 280 kts 65°
2026-05-04 22:38 23.78853 -75.33962 10501 ft 281 kts 65°
2026-05-04 22:38 23.79647 -75.31977 10499 ft 281 kts 65°
2026-05-04 22:39 23.80435 -75.30008 10500 ft 281 kts 65°
2026-05-04 22:39 23.81232 -75.28015 10499 ft 282 kts 65°
2026-05-04 22:39 23.82019 -75.26047 10499 ft 282 kts 65°
2026-05-04 22:39 23.82819 -75.24044 10499 ft 282 kts 65°
2026-05-04 22:40 23.83602 -75.22085 10500 ft 282 kts 65°
2026-05-04 22:40 23.84401 -75.20081 10499 ft 282 kts 65°
2026-05-04 22:40 23.85196 -75.18092 10499 ft 282 kts 65°
2026-05-04 22:40 23.85989 -75.16104 10500 ft 282 kts 65°
2026-05-04 22:41 23.86784 -75.14110 10501 ft 283 kts 65°
2026-05-04 22:41 23.87575 -75.12125 10175 ft 288 kts 65°
2026-05-04 22:41 23.88398 -75.10058 9562 ft 298 kts 65°
2026-05-04 22:41 23.89234 -75.07956 8976 ft 300 kts 65°
2026-05-04 22:42 23.90069 -75.05857 8448 ft 294 kts 65°
2026-05-04 22:42 23.90888 -75.03798 7814 ft 292 kts 65°
2026-05-04 22:42 23.91699 -75.01765 7186 ft 290 kts 65°
2026-05-04 22:42 23.92502 -74.99745 6551 ft 283 kts 65°
2026-05-04 22:43 23.93283 -74.97778 5913 ft 280 kts 65°
2026-05-04 22:43 23.94056 -74.95833 5281 ft 276 kts 65°
2026-05-04 22:43 23.94823 -74.93900 4648 ft 274 kts 65°
2026-05-04 22:43 23.95576 -74.92005 4100 ft 270 kts 65°
2026-05-04 22:44 23.96320 -74.90128 3703 ft 261 kts 65°
2026-05-04 22:44 23.97032 -74.88330 3317 ft 255 kts 66°
2026-05-04 22:44 23.97735 -74.86558 2932 ft 253 kts 66°
2026-05-04 22:44 23.98435 -74.84790 2596 ft 255 kts 66°
2026-05-04 22:45 23.99150 -74.82983 2344 ft 255 kts 66°
2026-05-04 22:45 24.00564 -74.79413 1858 ft 258 kts 66°
2026-05-04 22:45 24.01279 -74.77605 1616 ft 257 kts 66°
2026-05-04 22:46 24.01984 -74.75821 1472 ft 251 kts 66°
2026-05-04 22:46 24.02658 -74.74114 1483 ft 241 kts 66°
2026-05-04 22:46 24.03311 -74.72459 1488 ft 234 kts 66°
2026-05-04 22:46 24.03949 -74.70842 1488 ft 229 kts 66°
2026-05-04 22:47 24.04575 -74.69254 1489 ft 226 kts 66°
2026-05-04 22:47 24.05197 -74.67687 1478 ft 215 kts 67°
2026-05-04 22:47 24.05775 -74.66252 1461 ft 194 kts 69°
2026-05-04 22:47 24.06278 -74.64996 1623 ft 161 kts 68°
2026-05-04 22:48 24.06679 -74.63937 1527 ft 139 kts 68°
2026-05-04 22:48 24.06956 -74.63025 1454 ft 116 kts 90°
2026-05-04 22:48 24.07004 -74.62202 1450 ft 103 kts 91°
2026-05-04 22:48 24.06993 -74.61397 1436 ft 107 kts 92°
2026-05-04 22:49 24.06955 -74.60575 1300 ft 108 kts 93°
2026-05-04 22:49 24.06900 -74.59749 1158 ft 108 kts 94°
2026-05-04 22:49 24.06836 -74.58927 1014 ft 108 kts 94°
2026-05-04 22:49 24.06771 -74.58103 868 ft 108 kts 94°
2026-05-04 22:50 24.06705 -74.57272 721 ft 108 kts 94°
2026-05-04 22:50 24.06649 -74.56448 561 ft 109 kts 92°
2026-05-04 22:50 24.06598 -74.55636 385 ft 107 kts 94°
2026-05-04 22:50 24.06531 -74.54826 234 ft 105 kts 94°
2026-05-04 22:51 24.06465 -74.54038 106 ft 103 kts 94°
2026-05-04 22:51 24.06403 -74.53278 28 ft 91 kts 94°
2026-05-04 22:51 24.06359 -74.52757 29 ft 42 kts 96°
2026-05-04 22:51 24.06348 -74.52642 30 ft 4 kts 348°
2026-05-04 22:52 24.06356 -74.52697 30 ft 11 kts 273°
2026-05-04 22:52 24.06366 -74.52866 29 ft 29 kts 274°
2026-05-04 22:52 24.06385 -74.53095 27 ft 30 kts 275°
2026-05-04 22:52 24.06401 -74.53270 28 ft 16 kts 289°
2026-05-04 22:53 24.06495 -74.53289 29 ft 14 kts
2026-05-04 22:53 24.06577 -74.53254 29 ft 9 kts 69°
2026-05-04 22:53 24.06578 -74.53229 30 ft 0 kts 92°
2026-05-04 22:53 24.06579 -74.53229 30 ft 0 kts 92°